Orbital Elements at Epoch 2459200.5 (2020-Dec-17.0) TDB
Reference: JPL 30 (heliocentric ecliptic J2000)
Element | Value | Uncertainty (1-sigma) | Units |
e | .1331169729461689 | 2.8692e-08 | |
a | 2.359746124284118 | 7.894e-09 | au |
q | 2.045623863297962 | 6.6602e-08 | au |
i | 6.471366102377365 | 3.2347e-06 | deg |
node | 149.8874816626156 | 3.3365e-05 | deg |
peri | 163.274339474416 | 3.657e-05 | deg |
M | 111.1959518782739 | 1.6483e-05 | deg |
tp | 2458791.538123190133 (2019-Nov-04.03812319) | 5.9986e-05 | TDB |
period | 1324.025498812409 3.62 | 6.6439e-06 1.819e-08 | d yr |
n | .2718980867988599 | 1.3644e-09 | deg/d |
Q | 2.673868385270274 | 8.9449e-09 | au |
|
| | Orbit Determination Parameters
Additional Information
|